Location: La Comballaz
(46.3780°N, 7.0817°E)
Time: 09:26:38
(UTC+00:00)

Cosmos 2184 Rocket - Pass Details

Date: 09 April 2020
Orbit: 958 x 1003 km, 82.9° (Epoch: 24 May)

Event Time Altitude Azimuth Distance (km) Brightness Sun altitude
Rises 19:00:07 0° 350° (N) 3,706 7.5 -8.8°
Reaches altitude 10° 19:02:40 10° 349° (NNW) 2,747 6.8 -9.2°
Maximum altitude 19:08:56 76° 265° (W) 1,006 4.2 -10.2°
Drops below altitude 10° 19:15:06 10° 180° (S) 2,699 6.1 -11.2°
Sets 19:17:35 0° 179° (S) 3,636 6.7 -11.6°
